American Canyon, CA

6:55 PM PST on February 11, 2016 (GMT -0800)
Napa County

Weather History for KAPC - January, 2013

Change the Weather History Date:

Tuesday, January 29, 2013

  Actual Average Record
Temperature  
Mean Temperature 47 °F 47 °F  
Max Temperature 61 °F 57 °F 65 °F (2012)
Min Temperature 32 °F 38 °F 28 °F (2002)
Degree Days  
Heating Degree Days 18    
Month to date heating degree days 588  
Since 1 July heating degree days 1700  
Cooling Degree Days 0    
Month to date cooling degree days 0  
Year to date cooling degree days 0  
Moisture  
Dew Point 38 °F    
Average Humidity 76    
Maximum Humidity 100    
Minimum Humidity 51    
Precipitation  
Precipitation 0.00 in - 1.91 in (1968)
Month to date precipitation 0.34  
Year to date precipitation 0.34  
Since 1 July precipitation 8.13  
Sea Level Pressure  
Sea Level Pressure 30.28 in    
Wind  
Wind Speed 3 mph (SSE)    
Max Wind Speed 10 mph    
Max Gust Speed 25 mph    
Visibility 10 miles    
Events      
T = Trace of Precipitation, MM = Missing Value Source: NWS Daily Summary

Daily Weather History Graph

Daily Weather History Graph

Search for Another Location

Airport or City:

Trip Planner

Search our weather history database for the weather conditions in past years. The results will help you decide how hot, cold, wet, or windy it might be!

Date:

Astronomy

Jan. 29, 2013 Rise Set
Actual Time 7:16 AM PST 5:28 PM PST
Civil Twilight 6:48 AM PST 5:56 PM PST
Nautical Twilight 6:16 AM PST 6:28 PM PST
Astronomical Twilight 5:45 AM PST 6:59 PM PST
Moon 8:27 PM PST (1/29) 8:19 AM PST (1/29)
Length of Visible Light 11h 08m
Length of Day
10h 12m
Waning Gibbous, 93% of the Moon is Illuminated
Jan 29
Waning Gibbous
Feb 3
Last Quarter
Feb 9
New
Feb 17
First Quarter
Feb 25
Full

Hourly Weather History & Observations

Time (PST) Temp. Windchill Dew Point Humidity Pressure Visibility Wind Dir Wind Speed Gust Speed Precip Events Conditions
12:54 AM 37.9 °F - 36.0 °F 93% 30.26 in 10.0 mi Calm Calm - N/A   Clear
1:54 AM 37.0 °F - 34.0 °F 89% 30.27 in 10.0 mi Calm Calm - N/A   Clear
2:54 AM 36.0 °F - 35.1 °F 97% 30.27 in 10.0 mi Calm Calm - N/A   Clear
4:54 AM 36.0 °F 32.1 °F 34.0 °F 93% 30.29 in 10.0 mi NE 4.6 mph - N/A   Clear
5:54 AM 33.1 °F - 30.9 °F 92% 30.30 in 10.0 mi Calm Calm - N/A   Clear
6:54 AM 34.0 °F - 32.0 °F 92% 30.31 in 10.0 mi Calm Calm - N/A   Clear
7:54 AM 35.1 °F - 32.0 °F 89% 30.32 in 10.0 mi Calm Calm - N/A   Clear
8:54 AM 39.0 °F - 36.0 °F 89% 30.33 in 10.0 mi Calm Calm - N/A   Clear
9:54 AM 46.9 °F - 39.0 °F 74% 30.34 in 10.0 mi North 5.8 mph - N/A   Clear
10:54 AM 48.9 °F - 37.9 °F 66% 30.34 in 10.0 mi Calm Calm - N/A   Clear
11:54 AM 53.1 °F - 39.9 °F 61% 30.32 in 10.0 mi WSW 4.6 mph - N/A   Clear
12:54 PM 55.9 °F - 39.9 °F 55% 30.29 in 10.0 mi Calm Calm - N/A   Clear
1:54 PM 57.0 °F - 41.0 °F 55% 30.27 in 10.0 mi SSE 5.8 mph - N/A   Clear
2:54 PM 57.9 °F - 39.9 °F 51% 30.25 in 10.0 mi Calm Calm - N/A   Clear
3:54 PM 60.1 °F - 44.1 °F 55% 30.25 in 10.0 mi SSW 5.8 mph - N/A   Clear
4:54 PM 55.0 °F - 45.0 °F 69% 30.24 in 10.0 mi South 6.9 mph - N/A   Clear
5:54 PM 54.0 °F - 44.1 °F 69% 30.24 in 10.0 mi SSW 4.6 mph - N/A   Clear
6:54 PM 48.9 °F - 43.0 °F 80% 30.26 in 10.0 mi SE 4.6 mph - N/A   Clear
7:54 PM 46.0 °F 43.9 °F 42.1 °F 86% 30.27 in 10.0 mi SE 4.6 mph - N/A   Clear
8:54 PM 45.0 °F 43.5 °F 41.0 °F 86% 30.28 in 10.0 mi SE 3.5 mph - N/A   Clear
9:54 PM 44.1 °F 42.5 °F 39.9 °F 85% 30.27 in 10.0 mi ENE 3.5 mph - N/A   Clear
10:54 PM 37.9 °F - 36.0 °F 93% 30.27 in 10.0 mi Calm Calm - N/A   Clear
11:54 PM 37.9 °F 33.5 °F 35.1 °F 89% 30.28 in 10.0 mi ESE 5.8 mph - N/A   Clear